{"data":{"norad_id":57374,"intl_designator":"2023-099AY","name":"STARLINK-6369","alt_names":[],"object_type":"PAYLOAD","status":"ACTIVE","operator":null,"country":"US","launch_date":"2023-07-16","launch_site_code":"AFETR","launch_vehicle":null,"mission":null,"orbit_class":"UNKNOWN","rcs_meters":null,"size_class":null,"mass_kg":null,"dimensions":null,"purposes":["comms"],"wikipedia_slug":null,"has_3d_model":false,"image_url":null,"decayed_at":null,"tle_current":{"epoch":"2026-05-25T00:56:14.116992Z","epoch_age_seconds":82055,"freshness":"FRESH","line1":"1 57374U 23099AY  26145.03905228  .00000703  00000+0  35062-4 0  9995","line2":"2 57374  43.0011 152.5725 0001412 267.3246  92.7444 15.27579281158081","mean_motion":15.27579281,"eccentricity":0.0001412,"inclination_deg":43.0011,"raan_deg":152.5725,"arg_perigee_deg":267.3246,"mean_anomaly_deg":92.7444,"bstar":3.5062e-5,"rev_number":15808,"period_min":94.266793083062,"perigee_km":482.0824492044,"apogee_km":484.02004876591,"semimajor_km":6861.1882489852,"source":"CELESTRAK","updated_at":"2026-05-25T13:38:18.295609Z"}}}